Weather History for Whiteman AFB, MO

Change the Weather History Date:

Monday, January 23, 2012

  Actual Average Record
Temperature  
Mean Temperature 35 °F -  
Max Temperature 46 °F 37 °F 62 °F (2002)
Min Temperature 23 °F 20 °F -2 °F (2003)
Degree Days  
Heating Degree Days 30    
Moisture  
Dew Point 29 °F    
Average Humidity 74    
Maximum Humidity 99    
Minimum Humidity 47    
Precipitation  
Precipitation 0.00 in - - ()
Sea Level Pressure  
Sea Level Pressure 29.86 in    
Wind  
Wind Speed 15 mph (WNW)    
Max Wind Speed 23 mph    
Max Gust Speed 33 mph    
Visibility 10 miles    
Events      
Averages and records for this station are not official NWS values.
T = Trace of Precipitation, MM = Missing Value Source: NWS Daily Summary

Daily Weather History Graph

Daily Weather History Graph

Search for Another Location

Airport:

Trip Planner

Search our weather history database for the weather conditions in past years. The results will help you decide how hot, cold, wet, or windy it might be!

Date:

Astronomy

Jan. 23, 2012 Rise Set
Actual Time 7:27 AM CST 5:25 PM CST
Civil Twilight 6:58 AM CST 5:53 PM CST
Nautical Twilight 6:26 AM CST 6:26 PM CST
Astronomical Twilight 5:54 AM CST 6:57 PM CST
Moon 7:23 AM CST (1/23) 6:12 PM CST (1/23)
Length of Visible Light 10h 55m
Length of Day
9h 57m
Waxing Crescent, 0% of the Moon is Illuminated
Jan 23
Waxing Crescent
Jan 30
First Quarter
Feb 7
Full
Feb 14
Last Quarter
Feb 21
New

Hourly Weather History & Observations

Time (CST) Temp. Windchill Dew Point Humidity Pressure Visibility Wind Dir Wind Speed Gust Speed Precip Events Conditions
12:55 AM 40.1 °F 29.9 °F 37.0 °F 89% 29.55 in 10.0 mi West 23.0 mph 32.2 mph N/A   Overcast
1:18 AM 37.4 °F 26.4 °F 32.0 °F 81% 29.58 in 10.0 mi WNW 23.0 mph 31.1 mph N/A   Mostly Cloudy
1:31 AM 37.4 °F 28.2 °F 30.2 °F 75% 29.59 in 10.0 mi West 16.1 mph - N/A   Mostly Cloudy
1:55 AM 37.2 °F 27.9 °F 31.1 °F 79% 29.61 in 10.0 mi West 16.1 mph 23.0 mph N/A   Mostly Cloudy
2:55 AM 34.9 °F 24.2 °F 29.3 °F 80% 29.67 in 10.0 mi West 18.4 mph 28.8 mph N/A   Overcast
3:55 AM 33.8 °F 23.5 °F 28.2 °F 80% 29.71 in 10.0 mi West 16.1 mph 33.4 mph N/A   Overcast
4:34 AM 33.8 °F 23.9 °F 28.4 °F 81% 29.73 in 10.0 mi West 15.0 mph - N/A   Scattered Clouds
4:55 AM 32.5 °F 23.7 °F 28.2 °F 84% 29.75 in 10.0 mi West 11.5 mph 18.4 mph N/A   Partly Cloudy
5:55 AM 34.5 °F 24.5 °F 30.2 °F 84% 29.78 in 10.0 mi West 16.1 mph 21.9 mph N/A   Overcast
5:58 AM 35.6 °F 27.1 °F 30.2 °F 81% 29.79 in 10.0 mi WSW 12.7 mph - N/A   Overcast
6:55 AM 36.9 °F 27.5 °F 32.9 °F 86% 29.81 in 10.0 mi West 16.1 mph - N/A   Overcast
7:34 AM 37.4 °F 30.3 °F 33.8 °F 87% 29.83 in 10.0 mi West 10.4 mph - N/A   Overcast
7:55 AM 36.7 °F 28.4 °F 34.0 °F 90% 29.84 in 10.0 mi West 12.7 mph - N/A   Overcast
8:13 AM 37.4 °F 29.3 °F 33.8 °F 87% 29.84 in 10.0 mi West 12.7 mph - N/A   Overcast
8:55 AM 37.9 °F 30.0 °F 32.5 °F 81% 29.86 in 10.0 mi West 12.7 mph - N/A   Overcast
9:55 AM 39.6 °F 30.3 °F 30.0 °F 69% 29.88 in 10.0 mi WNW 18.4 mph 25.3 mph N/A   Overcast
10:02 AM 39.2 °F 31.2 °F 28.4 °F 65% 29.88 in 10.0 mi NW 13.8 mph 21.9 mph N/A   Overcast
10:14 AM 39.2 °F 30.5 °F 28.4 °F 65% 29.89 in 10.0 mi West 16.1 mph 25.3 mph N/A   Overcast
10:55 AM 40.3 °F 31.0 °F 28.4 °F 63% 29.90 in 10.0 mi WNW 19.6 mph 25.3 mph N/A   Overcast
11:55 AM 41.2 °F 32.4 °F 26.8 °F 57% 29.90 in 10.0 mi WNW 18.4 mph - N/A   Overcast
12:55 PM 42.6 °F 35.2 °F 26.6 °F 53% 29.92 in 10.0 mi WNW 15.0 mph - N/A   Overcast
1:55 PM 44.2 °F 37.3 °F 26.4 °F 50% 29.93 in 10.0 mi West 15.0 mph 25.3 mph N/A   Mostly Cloudy
2:55 PM 45.9 °F 40.4 °F 27.0 °F 48% 29.93 in 10.0 mi West 11.5 mph - N/A   Partly Cloudy
3:55 PM 46.6 °F - 27.1 °F 47% 29.95 in 10.0 mi West 16.1 mph 20.7 mph N/A   Clear
4:55 PM 45.9 °F 40.4 °F 27.0 °F 48% 29.96 in 10.0 mi West 11.5 mph - N/A   Clear
5:55 PM 41.0 °F 35.8 °F 25.9 °F 55% 29.99 in 10.0 mi West 8.1 mph - N/A   Clear
6:55 PM 38.3 °F 34.8 °F 25.3 °F 60% 30.01 in 10.0 mi NNW 4.6 mph - N/A   Clear
7:55 PM 29.3 °F - 25.2 °F 85% 30.05 in 10.0 mi Calm Calm - N/A   Clear
8:55 PM 28.4 °F 24.6 °F 25.0 °F 87% 30.07 in 10.0 mi North 3.5 mph - N/A   Clear
9:55 PM 27.3 °F - 24.4 °F 89% 30.10 in 10.0 mi Calm Calm - N/A   Clear
10:55 PM 24.6 °F - 23.5 °F 96% 30.10 in 10.0 mi Calm Calm - N/A   Clear
11:55 PM 23.2 °F - 23.0 °F 99% 30.10 in 10.0 mi Calm Calm - N/A   Clear